| time (UTC) | temp C | wind direction | speed KPH | gust KPH | rain 1hr cm | rain 24hr cm | rain mn cm | humidity % | barometer mb |
| 20260505153250 | 27 | 352 | 1.6 | 1.6 | 0.00 | 0.00 | 0.00 | 58 | 1023.7 |
| 20260505152747 | 27 | 342 | 0.0 | 0.0 | 0.00 | 0.00 | 0.00 | 58 | 1024.0 |
| 20260505152243 | 27 | 338 | 0.0 | 1.6 | 0.00 | 0.00 | 0.00 | 60 | 1023.8 |
| 20260505151737 | 27 | 14 | 1.6 | 3.2 | 0.00 | 0.00 | 0.00 | 59 | 1023.8 |
| 20260505151235 | 27 | 8 | 1.6 | 3.2 | 0.00 | 0.00 | 0.00 | 60 | 1024.0 |
| 20260505150732 | 26 | 352 | 4.8 | 4.8 | 0.00 | 0.00 | 0.00 | 61 | 1023.9 |
| 20260505150229 | 26 | 66 | 4.8 | 8.0 | 0.00 | 0.00 | 0.00 | 62 | 1023.9 |
| 20260505140154 | 25 | 12 | 4.8 | 4.8 | 0.00 | 0.00 | 0.00 | 69 | 1024.7 |
| 20260505130118 | 23 | 5 | 1.6 | 1.6 | 0.00 | 0.00 | 0.00 | 76 | 1025.3 |
| 20260505124607 | 22 | 54 | 3.2 | 3.2 | 0.00 | 0.00 | 0.00 | 79 | 1025.1 |
| 20260505124103 | 22 | 51 | 6.4 | 8.0 | 0.00 | 0.00 | 0.00 | 78 | 1025.0 |
| 20260505123600 | 22 | 359 | 1.6 | 3.2 | 0.00 | 0.00 | 0.00 | 80 | 1024.9 |
| 20260505123056 | 22 | 37 | 1.6 | 1.6 | 0.00 | 0.00 | 0.00 | 80 | 1025.0 |
| 20260505122553 | 21 | 3 | 1.6 | 1.6 | 0.00 | 0.00 | 0.00 | 81 | 1024.8 |
| 20260505122050 | 21 | 76 | 4.8 | 4.8 | 0.00 | 0.00 | 0.00 | 81 | 1024.8 |
| 20260505121547 | 21 | 359 | 3.2 | 3.2 | 0.00 | 0.00 | 0.00 | 83 | 1024.8 |
| 20260505121044 | 21 | 42 | 1.6 | 3.2 | 0.00 | 0.00 | 0.00 | 83 | 1024.8 |
| 20260505120540 | 21 | 359 | 0.0 | 1.6 | 0.00 | 0.00 | 0.00 | 84 | 1024.8 |
| 20260505120035 | 21 | 71 | 3.2 | 4.8 | 0.00 | 0.00 | 0.00 | 84 | 1024.6 |
| 20260505115530 | 21 | 69 | 6.4 | 8.0 | 0.00 | 0.00 | 0.00 | 84 | 1024.6 |
| 20260505115028 | 21 | 39 | 4.8 | 4.8 | 0.00 | 0.00 | 0.00 | 84 | 1024.7 |
| 20260505114525 | 20 | 355 | 1.6 | 4.8 | 0.00 | 0.00 | 0.00 | 85 | 1024.5 |
| 20260505114021 | 20 | 344 | 0.0 | 1.6 | 0.00 | 0.00 | 0.00 | 85 | 1024.5 |
| 20260505113518 | 20 | 350 | 0.0 | 1.6 | 0.00 | 0.00 | 0.00 | 87 | 1024.7 |
| 20260505113014 | 20 | 80 | 1.6 | 1.6 | 0.00 | 0.00 | 0.00 | 87 | 1024.5 |
| 20260505112511 | 20 | 83 | 3.2 | 4.8 | 0.00 | 0.00 | 0.00 | 88 | 1024.1 |
| 20260505112009 | 20 | 14 | 3.2 | 4.8 | 0.00 | 0.00 | 0.00 | 87 | 1024.0 |
| 20260505111502 | 20 | 354 | 0.0 | 0.0 | 0.00 | 0.00 | 0.00 | 88 | 1023.9 |
| 20260505110959 | 19 | 356 | 0.0 | 1.6 | 0.00 | 0.00 | 0.00 | 90 | 1023.9 |
| 20260505110455 | 19 | 85 | 6.4 | 8.0 | 0.00 | 0.00 | 0.00 | 89 | 1024.1 |
| 20260505101920 | 18 | 17 | 0.0 | 1.6 | 0.00 | 0.00 | 0.00 | 91 | 1023.6 |
| 20260505101415 | 18 | 7 | 0.0 | 1.6 | 0.00 | 0.00 | 0.00 | 92 | 1023.7 |
| 20260505100911 | 18 | 50 | 0.0 | 0.0 | 0.00 | 0.00 | 0.00 | 93 | 1023.7 |
| 20260505100408 | 18 | 32 | 0.0 | 0.0 | 0.00 | 0.00 | 0.00 | 94 | 1023.5 |
| 20260505095903 | 18 | 94 | 1.6 | 1.6 | 0.00 | 0.00 | 0.00 | 95 | 1023.4 |
| 20260505095401 | 17 | 14 | 1.6 | 3.2 | 0.00 | 0.00 | 0.00 | 95 | 1023.5 |
| 20260505094857 | 17 | 59 | 1.6 | 1.6 | 0.00 | 0.00 | 0.00 | 95 | 1023.4 |
| 20260505094354 | 17 | 17 | 1.6 | 3.2 | 0.00 | 0.00 | 0.00 | 95 | 1023.2 |
| 20260505093849 | 17 | 11 | 1.6 | 3.2 | 0.00 | 0.00 | 0.00 | 95 | 1023.5 |
| 20260505093347 | 17 | 37 | 0.0 | 1.6 | 0.00 | 0.00 | 0.00 | 95 | 1023.3 |
| 20260505092844 | 17 | 18 | 1.6 | 3.2 | 0.00 | 0.00 | 0.00 | 95 | 1023.4 |
| 20260505092342 | 17 | 24 | 0.0 | 1.6 | 0.00 | 0.00 | 0.00 | 95 | 1023.0 |
| 20260505091839 | 17 | 16 | 0.0 | 0.0 | 0.00 | 0.00 | 0.00 | 95 | 1023.2 |
| 20260505091337 | 17 | 62 | 0.0 | 0.0 | 0.00 | 0.00 | 0.00 | 95 | 1023.0 |
| 20260505090835 | 17 | 28 | 0.0 | 1.6 | 0.00 | 0.00 | 0.00 | 95 | 1023.0 |
| 20260505090333 | 17 | 347 | 1.6 | 1.6 | 0.00 | 0.00 | 0.00 | 95 | 1022.6 |
| 20260505085830 | 17 | 24 | 0.0 | 1.6 | 0.00 | 0.00 | 0.00 | 95 | 1022.9 |
| 20260505085328 | 17 | 80 | 1.6 | 3.2 | 0.00 | 0.00 | 0.00 | 95 | 1023.0 |
| 20260505084825 | 17 | 351 | 1.6 | 1.6 | 0.00 | 0.00 | 0.00 | 95 | 1022.7 |
| 20260505084324 | 17 | 23 | 0.0 | 1.6 | 0.00 | 0.00 | 0.00 | 95 | 1022.5 |
| 20260505083820 | 17 | 9 | 1.6 | 1.6 | 0.00 | 0.00 | 0.00 | 95 | 1022.5 |
| 20260505083318 | 17 | 20 | 1.6 | 1.6 | 0.00 | 0.00 | 0.00 | 95 | 1022.6 |
| 20260505082814 | 17 | 59 | 6.4 | 8.0 | 0.00 | 0.00 | 0.00 | 95 | 1022.4 |
| 20260505082311 | 17 | 57 | 0.0 | 1.6 | 0.00 | 0.00 | 0.00 | 95 | 1022.3 |
| 20260505081807 | 17 | 30 | 0.0 | 1.6 | 0.00 | 0.00 | 0.00 | 95 | 1022.4 |
| 20260505081304 | 17 | 358 | 1.6 | 1.6 | 0.00 | 0.00 | 0.00 | 95 | 1022.3 |
| 20260505080801 | 17 | 17 | 1.6 | 1.6 | 0.00 | 0.00 | 0.00 | 95 | 1022.2 |
| 20260505080257 | 17 | 46 | 4.8 | 4.8 | 0.00 | 0.00 | 0.00 | 95 | 1022.2 |
| 20260505075752 | 17 | 355 | 3.2 | 4.8 | 0.00 | 0.00 | 0.00 | 95 | 1022.3 |
| 20260505075249 | 17 | 42 | 3.2 | 3.2 | 0.00 | 0.00 | 0.00 | 94 | 1022.3 |
| 20260505074747 | 18 | 47 | 3.2 | 4.8 | 0.00 | 0.00 | 0.00 | 94 | 1022.5 |
| 20260505074244 | 18 | 79 | 3.2 | 3.2 | 0.00 | 0.00 | 0.00 | 94 | 1022.3 |
| 20260505073741 | 18 | 31 | 1.6 | 4.8 | 0.00 | 0.00 | 0.00 | 94 | 1022.2 |
| 20260505073239 | 18 | 20 | 3.2 | 3.2 | 0.00 | 0.00 | 0.00 | 94 | 1022.2 |
| 20260505072735 | 18 | 24 | 0.0 | 1.6 | 0.00 | 0.00 | 0.00 | 94 | 1022.3 |
| 20260505072232 | 18 | 80 | 1.6 | 3.2 | 0.00 | 0.00 | 0.00 | 94 | 1022.3 |
| 20260505071727 | 18 | 40 | 1.6 | 1.6 | 0.00 | 0.00 | 0.00 | 94 | 1022.2 |
| 20260505071225 | 18 | 63 | 3.2 | 4.8 | 0.00 | 0.00 | 0.00 | 94 | 1022.4 |
| 20260505070722 | 18 | 9 | 0.0 | 1.6 | 0.00 | 0.00 | 0.00 | 94 | 1022.4 |
| 20260505070218 | 18 | 82 | 1.6 | 4.8 | 0.00 | 0.00 | 0.00 | 94 | 1022.4 |
| 20260505065714 | 18 | 341 | 3.2 | 4.8 | 0.00 | 0.00 | 0.00 | 94 | 1022.4 |
| 20260505065211 | 18 | 33 | 3.2 | 3.2 | 0.00 | 0.00 | 0.00 | 94 | 1022.5 |
| 20260505064708 | 18 | 0 | 1.6 | 3.2 | 0.00 | 0.00 | 0.00 | 94 | 1022.6 |
| 20260505064206 | 18 | 44 | 3.2 | 4.8 | 0.00 | 0.00 | 0.00 | 94 | 1022.7 |
| 20260505063703 | 18 | 85 | 1.6 | 3.2 | 0.00 | 0.00 | 0.00 | 94 | 1022.6 |
| 20260505063159 | 18 | 357 | 1.6 | 3.2 | 0.00 | 0.00 | 0.00 | 94 | 1022.6 |
| 20260505062655 | 18 | 71 | 3.2 | 4.8 | 0.00 | 0.00 | 0.00 | 93 | 1022.6 |
| 20260505062153 | 18 | 101 | 3.2 | 3.2 | 0.00 | 0.00 | 0.00 | 93 | 1022.5 |
| 20260505061650 | 18 | 105 | 1.6 | 1.6 | 0.00 | 0.00 | 0.00 | 93 | 1022.6 |
| 20260505061148 | 18 | 353 | 4.8 | 4.8 | 0.00 | 0.00 | 0.00 | 93 | 1022.8 |
| 20260505060645 | 18 | 113 | 3.2 | 8.0 | 0.00 | 0.00 | 0.00 | 93 | 1022.5 |
| 20260505060142 | 18 | 76 | 3.2 | 3.2 | 0.00 | 0.00 | 0.00 | 93 | 1022.8 |
| 20260505055637 | 18 | 339 | 1.6 | 1.6 | 0.00 | 0.00 | 0.00 | 94 | 1022.8 |
| 20260505055134 | 18 | 45 | 1.6 | 3.2 | 0.00 | 0.00 | 0.00 | 94 | 1022.6 |
| 20260505054632 | 18 | 80 | 0.0 | 0.0 | 0.00 | 0.00 | 0.00 | 94 | 1022.9 |
| 20260505054129 | 18 | 39 | 0.0 | 0.0 | 0.00 | 0.00 | 0.00 | 94 | 1022.7 |
| 20260505053627 | 18 | 70 | 0.0 | 0.0 | 0.00 | 0.00 | 0.00 | 94 | 1022.7 |
| 20260505053123 | 18 | 3 | 0.0 | 0.0 | 0.00 | 0.00 | 0.00 | 94 | 1022.6 |
| 20260505052620 | 18 | 68 | 0.0 | 1.6 | 0.00 | 0.00 | 0.00 | 94 | 1022.8 |
| 20260505052117 | 18 | 358 | 0.0 | 0.0 | 0.00 | 0.00 | 0.00 | 94 | 1022.9 |
| 20260505051614 | 18 | 0 | 0.0 | 0.0 | 0.00 | 0.00 | 0.00 | 93 | 1022.9 |
| 20260505051112 | 18 | 359 | 0.0 | 0.0 | 0.00 | 0.00 | 0.00 | 93 | 1022.6 |
| 20260505050610 | 18 | 7 | 0.0 | 0.0 | 0.00 | 0.00 | 0.00 | 93 | 1022.6 |
| 20260505050108 | 18 | 356 | 1.6 | 3.2 | 0.00 | 0.00 | 0.00 | 93 | 1022.8 |
| 20260505041538 | 18 | 24 | 0.0 | 0.0 | 0.00 | 0.00 | 0.00 | 93 | 1023.3 |
| 20260505041035 | 18 | 13 | 3.2 | 4.8 | 0.00 | 0.00 | 0.00 | 93 | 1023.4 |
| 20260505040532 | 18 | 23 | 1.6 | 3.2 | 0.00 | 0.00 | 0.00 | 93 | 1023.3 |
| 20260505040029 | 18 | 35 | 1.6 | 1.6 | 0.00 | 0.00 | 0.00 | 93 | 1023.2 |
| 20260505035525 | 18 | 76 | 1.6 | 1.6 | 0.00 | 0.00 | 0.00 | 93 | 1023.5 |
| 20260505035022 | 18 | 56 | 1.6 | 1.6 | 0.00 | 0.00 | 0.00 | 93 | 1023.0 |
| 20260505034519 | 18 | 30 | 3.2 | 3.2 | 0.00 | 0.00 | 0.00 | 93 | 1023.3 |
| 20260505034016 | 18 | 67 | 3.2 | 4.8 | 0.00 | 0.00 | 0.00 | 93 | 1023.4 |
| 20260505033513 | 18 | 338 | 1.6 | 1.6 | 0.00 | 0.00 | 0.00 | 94 | 1023.3 |
| 20260505033011 | 18 | 24 | 0.0 | 0.0 | 0.00 | 0.00 | 0.00 | 94 | 1023.4 |
| 20260505032508 | 18 | 7 | 1.6 | 1.6 | 0.00 | 0.00 | 0.00 | 94 | 1023.3 |
| 20260505032004 | 18 | 64 | 0.0 | 0.0 | 0.00 | 0.00 | 0.00 | 94 | 1023.5 |
| 20260505031501 | 18 | 72 | 1.6 | 1.6 | 0.00 | 0.00 | 0.00 | 94 | 1023.2 |
| 20260505030958 | 18 | 8 | 0.0 | 0.0 | 0.00 | 0.00 | 0.00 | 94 | 1023.4 |
| 20260505030454 | 18 | 32 | 0.0 | 0.0 | 0.00 | 0.00 | 0.00 | 95 | 1023.5 |
| 20260505025949 | 18 | 85 | 1.6 | 1.6 | 0.00 | 0.00 | 0.00 | 95 | 1023.6 |
| 20260505025447 | 18 | 62 | 1.6 | 1.6 | 0.00 | 0.00 | 0.00 | 95 | 1023.3 |
| 20260505024946 | 18 | 55 | 1.6 | 1.6 | 0.00 | 0.00 | 0.00 | 95 | 1023.3 |
| 20260505024443 | 18 | 19 | 0.0 | 0.0 | 0.00 | 0.00 | 0.00 | 95 | 1023.3 |
| 20260505023940 | 18 | 68 | 0.0 | 0.0 | 0.00 | 0.00 | 0.00 | 95 | 1023.5 |
| 20260505023437 | 18 | 8 | 0.0 | 0.0 | 0.00 | 0.00 | 0.00 | 95 | 1023.3 |
| 20260505022934 | 18 | 61 | 0.0 | 0.0 | 0.00 | 0.00 | 0.00 | 95 | 1023.6 |
| 20260505022432 | 18 | 3 | 0.0 | 0.0 | 0.00 | 0.00 | 0.00 | 95 | 1023.4 |
| 20260505021929 | 18 | 18 | 0.0 | 0.0 | 0.00 | 0.00 | 0.00 | 95 | 1023.4 |
| 20260505021425 | 18 | 20 | 0.0 | 0.0 | 0.00 | 0.00 | 0.00 | 95 | 1023.4 |
| 20260505020921 | 18 | 353 | 0.0 | 0.0 | 0.00 | 0.00 | 0.00 | 95 | 1023.5 |
| 20260505020416 | 18 | 5 | 0.0 | 0.0 | 0.00 | 0.00 | 0.00 | 95 | 1023.3 |
| 20260505015913 | 18 | 81 | 1.6 | 1.6 | 0.00 | 0.00 | 0.00 | 95 | 1023.5 |
| 20260505015411 | 18 | 17 | 0.0 | 0.0 | 0.00 | 0.00 | 0.00 | 95 | 1023.4 |
| 20260505014908 | 18 | 11 | 1.6 | 1.6 | 0.00 | 0.00 | 0.00 | 95 | 1023.3 |
| 20260505014405 | 18 | 40 | 4.8 | 8.0 | 0.00 | 0.00 | 0.00 | 95 | 1023.5 |
| 20260505013901 | 18 | 29 | 1.6 | 3.2 | 0.00 | 0.00 | 0.00 | 95 | 1023.2 |
| 20260505013358 | 18 | 91 | 0.0 | 1.6 | 0.00 | 0.00 | 0.00 | 95 | 1023.2 |
| 20260505012857 | 18 | 30 | 1.6 | 3.2 | 0.00 | 0.00 | 0.00 | 95 | 1023.2 |
| 20260505012354 | 18 | 358 | 1.6 | 1.6 | 0.00 | 0.00 | 0.00 | 95 | 1023.2 |
| 20260505011850 | 18 | 122 | 3.2 | 3.2 | 0.00 | 0.00 | 0.00 | 95 | 1023.2 |
| 20260505011347 | 18 | 54 | 1.6 | 1.6 | 0.00 | 0.00 | 0.00 | 95 | 1023.2 |
| 20260505010843 | 18 | 6 | 1.6 | 1.6 | 0.00 | 0.00 | 0.00 | 95 | 1023.4 |
| 20260505010339 | 18 | 7 | 1.6 | 1.6 | 0.00 | 0.00 | 0.00 | 95 | 1023.3 |
| 20260505005836 | 18 | 14 | 1.6 | 1.6 | 0.00 | 0.00 | 0.00 | 96 | 1023.3 |
| 20260505005332 | 18 | 4 | 0.0 | 0.0 | 0.00 | 0.00 | 0.00 | 96 | 1023.2 |
| 20260505004830 | 18 | 72 | 0.0 | 1.6 | 0.00 | 0.00 | 0.00 | 96 | 1023.4 |
| 20260505004326 | 18 | 9 | 0.0 | 0.0 | 0.00 | 0.00 | 0.00 | 96 | 1023.5 |
| 20260505003824 | 18 | 1 | 0.0 | 0.0 | 0.00 | 0.00 | 0.00 | 96 | 1023.4 |
| 20260505003321 | 18 | 319 | 0.0 | 0.0 | 0.00 | 0.00 | 0.00 | 96 | 1023.2 |
| 20260505002816 | 18 | 1 | 0.0 | 0.0 | 0.00 | 0.00 | 0.00 | 96 | 1023.3 |
| 20260505002314 | 17 | 18 | 0.0 | 0.0 | 0.00 | 0.00 | 0.00 | 96 | 1023.3 |
| 20260505001812 | 17 | 50 | 0.0 | 0.0 | 0.00 | 0.00 | 0.00 | 96 | 1023.0 |
| 20260505001309 | 17 | 13 | 0.0 | 0.0 | 0.00 | 0.00 | 0.00 | 97 | 1022.9 |
| 20260505000806 | 17 | 133 | 0.0 | 0.0 | 0.00 | 0.00 | 0.00 | 97 | 1023.2 |
| 20260505000304 | 17 | 90 | 3.2 | 3.2 | 0.00 | 0.00 | 0.00 | 96 | 1023.0 |
| 20260504235800 | 17 | 88 | 3.2 | 3.2 | 0.00 | 0.00 | 0.00 | 96 | 1023.2 |
| 20260504235256 | 17 | 66 | 1.6 | 1.6 | 0.00 | 0.00 | 0.00 | 96 | 1023.2 |
| 20260504234754 | 17 | 85 | 0.0 | 1.6 | 0.00 | 0.00 | 0.00 | 97 | 1022.9 |
| 20260504234251 | 17 | 85 | 4.8 | 4.8 | 0.00 | 0.00 | 0.00 | 97 | 1023.2 |
| 20260504233747 | 17 | 358 | 0.0 | 0.0 | 0.00 | 0.00 | 0.00 | 97 | 1023.0 |
| 20260504233243 | 17 | 273 | 1.6 | 1.6 | 0.00 | 0.00 | 0.00 | 97 | 1023.0 |
| 20260504232740 | 17 | 183 | 3.2 | 3.2 | 0.00 | 0.00 | 0.00 | 97 | 1022.9 |
| 20260504232237 | 17 | 85 | 1.6 | 3.2 | 0.00 | 0.00 | 0.00 | 97 | 1023.0 |
| 20260504231734 | 17 | 75 | 4.8 | 4.8 | 0.00 | 0.00 | 0.00 | 97 | 1022.9 |
| 20260504231231 | 17 | 34 | 4.8 | 8.0 | 0.00 | 0.00 | 0.00 | 97 | 1022.8 |
| 20260504230726 | 17 | 165 | 6.4 | 8.0 | 0.00 | 0.00 | 0.00 | 97 | 1023.0 |
| 20260504230225 | 17 | 194 | 14.5 | 14.5 | 0.00 | 0.00 | 0.00 | 97 | 1022.9 |
| 20260504225724 | 17 | 152 | 6.4 | 11.3 | 0.00 | 0.00 | 0.00 | 97 | 1022.7 |
| 20260504225220 | 17 | 156 | 9.7 | 11.3 | 0.00 | 0.00 | 0.00 | 97 | 1022.6 |
| 20260504224717 | 17 | 73 | 4.8 | 8.0 | 0.00 | 0.00 | 0.00 | 97 | 1022.5 |
| 20260504224214 | 17 | 178 | 6.4 | 12.9 | 0.00 | 0.00 | 0.00 | 97 | 1022.4 |
| 20260504223710 | 17 | 183 | 6.4 | 8.0 | 0.00 | 0.00 | 0.00 | 96 | 1022.5 |
| 20260504223206 | 18 | 102 | 11.3 | 12.9 | 0.00 | 0.00 | 0.00 | 95 | 1022.5 |
| 20260504222703 | 18 | 144 | 4.8 | 4.8 | 0.00 | 0.00 | 0.00 | 95 | 1022.7 |
| 20260504222200 | 18 | 346 | 1.6 | 1.6 | 0.00 | 0.00 | 0.00 | 96 | 1022.1 |
| 20260504221657 | 17 | 174 | 6.4 | 8.0 | 0.00 | 0.00 | 0.00 | 96 | 1022.3 |
| 20260504221154 | 17 | 171 | 6.4 | 9.7 | 0.00 | 0.00 | 0.00 | 96 | 1022.3 |
| 20260504220650 | 17 | 191 | 9.7 | 11.3 | 0.00 | 0.00 | 0.00 | 96 | 1021.7 |
| 20260504220148 | 17 | 124 | 1.6 | 3.2 | 0.00 | 0.00 | 0.00 | 96 | 1022.0 |
| 20260504215644 | 17 | 143 | 6.4 | 8.0 | 0.00 | 0.00 | 0.00 | 96 | 1021.9 |
| 20260504215142 | 17 | 196 | 3.2 | 3.2 | 0.00 | 0.00 | 0.00 | 96 | 1021.6 |
| 20260504214637 | 17 | 181 | 8.0 | 8.0 | 0.00 | 0.00 | 0.00 | 95 | 1021.6 |
| 20260504214134 | 17 | 188 | 3.2 | 3.2 | 0.00 | 0.00 | 0.00 | 95 | 1021.6 |
| 20260504213631 | 18 | 205 | 6.4 | 8.0 | 0.00 | 0.00 | 0.00 | 95 | 1021.7 |
| 20260504213128 | 18 | 248 | 4.8 | 4.8 | 0.00 | 0.00 | 0.00 | 95 | 1021.5 |
| 20260504212624 | 18 | 116 | 3.2 | 8.0 | 0.00 | 0.00 | 0.00 | 95 | 1021.4 |
| 20260504212121 | 18 | 126 | 3.2 | 4.8 | 0.00 | 0.00 | 0.00 | 95 | 1021.5 |
| 20260504211619 | 18 | 71 | 3.2 | 3.2 | 0.00 | 0.00 | 0.00 | 95 | 1021.5 |
| 20260504211114 | 18 | 175 | 4.8 | 8.0 | 0.00 | 0.00 | 0.00 | 94 | 1021.4 |
| 20260504210613 | 18 | 208 | 6.4 | 9.7 | 0.00 | 0.00 | 0.00 | 94 | 1021.4 |
| 20260504210108 | 18 | 342 | 3.2 | 4.8 | 0.00 | 0.00 | 0.00 | 94 | 1021.4 |
| 20260504205606 | 18 | 93 | 6.4 | 8.0 | 0.00 | 0.00 | 0.00 | 95 | 1021.3 |
| 20260504205104 | 18 | 83 | 12.9 | 17.7 | 0.00 | 0.00 | 0.00 | 94 | 1021.3 |
| 20260504204602 | 18 | 106 | 6.4 | 9.7 | 0.00 | 0.00 | 0.00 | 94 | 1021.4 |
| 20260504204101 | 18 | 162 | 12.9 | 16.1 | 0.00 | 0.00 | 0.00 | 93 | 1021.4 |
| 20260504203559 | 18 | 166 | 6.4 | 12.9 | 0.00 | 0.00 | 0.00 | 93 | 1021.2 |
| 20260504203056 | 18 | 77 | 1.6 | 1.6 | 0.00 | 0.00 | 0.00 | 92 | 1021.1 |
| 20260504202551 | 18 | 303 | 4.8 | 12.9 | 0.00 | 0.00 | 0.00 | 92 | 1021.1 |
| 20260504202048 | 18 | 166 | 17.7 | 20.9 | 0.00 | 0.00 | 0.00 | 92 | 1021.2 |
| 20260504201545 | 18 | 157 | 14.5 | 17.7 | 0.00 | 0.00 | 0.00 | 92 | 1021.4 |
| 20260504201043 | 19 | 159 | 16.1 | 17.7 | 0.00 | 0.00 | 0.00 | 91 | 1021.0 |
| 20260504200539 | 19 | 189 | 14.5 | 22.5 | 0.00 | 0.00 | 0.00 | 91 | 1021.2 |
| 20260504200036 | 19 | 251 | 8.0 | 17.7 | 0.00 | 0.00 | 0.00 | 90 | 1021.0 |
| 20260504195532 | 20 | 192 | 16.1 | 22.5 | 0.00 | 0.00 | 0.00 | 90 | 1020.9 |
| 20260504195029 | 20 | 169 | 12.9 | 14.5 | 0.00 | 0.00 | 0.00 | 89 | 1021.0 |
| 20260504194525 | 20 | 194 | 12.9 | 17.7 | 0.00 | 0.00 | 0.00 | 88 | 1021.1 |
| 20260504194020 | 20 | 144 | 25.7 | 29.0 | 0.00 | 0.00 | 0.00 | 87 | 1020.8 |
| 20260504193518 | 21 | 177 | 14.5 | 22.5 | 0.00 | 0.00 | 0.00 | 85 | 1020.7 |
| 20260504193017 | 21 | 243 | 14.5 | 20.9 | 0.00 | 0.00 | 0.00 | 85 | 1020.6 |
| 20260504192514 | 22 | 119 | 20.9 | 27.4 | 0.00 | 0.00 | 0.00 | 83 | 1020.6 |
| 20260504192012 | 25 | 148 | 30.6 | 38.6 | 0.00 | 0.00 | 0.00 | 73 | 1020.3 |
| 20260504191510 | 25 | 275 | 0.0 | 0.0 | 0.00 | 0.00 | 0.00 | 64 | 1020.1 |
| 20260504191006 | 25 | 340 | 3.2 | 3.2 | 0.00 | 0.00 | 0.00 | 64 | 1020.3 |
| 20260504190501 | 26 | 8 | 3.2 | 3.2 | 0.00 | 0.00 | 0.00 | 64 | 1020.1 |
| 20260504185958 | 26 | 3 | 4.8 | 4.8 | 0.00 | 0.00 | 0.00 | 63 | 1020.0 |
| 20260504185455 | 26 | 20 | 3.2 | 4.8 | 0.00 | 0.00 | 0.00 | 64 | 1020.1 |
| 20260504184951 | 26 | 4 | 4.8 | 8.0 | 0.00 | 0.00 | 0.00 | 62 | 1020.0 |
| 20260504184447 | 27 | 308 | 3.2 | 3.2 | 0.00 | 0.00 | 0.00 | 61 | 1020.2 |
| 20260504183943 | 26 | 355 | 3.2 | 3.2 | 0.00 | 0.00 | 0.00 | 62 | 1020.1 |
| 20260504183440 | 26 | 349 | 1.6 | 1.6 | 0.00 | 0.00 | 0.00 | 63 | 1020.1 |
| 20260504182938 | 26 | 341 | 1.6 | 1.6 | 0.00 | 0.00 | 0.00 | 63 | 1020.1 |
| 20260504182434 | 25 | 274 | 4.8 | 4.8 | 0.00 | 0.00 | 0.00 | 64 | 1020.2 |
| 20260504181931 | 25 | 335 | 8.0 | 9.7 | 0.00 | 0.00 | 0.00 | 64 | 1020.1 |
| 20260504181423 | 26 | 12 | 4.8 | 8.0 | 0.00 | 0.00 | 0.00 | 64 | 1020.0 |
| 20260504180922 | 26 | 333 | 4.8 | 8.0 | 0.00 | 0.00 | 0.00 | 63 | 1020.3 |
| 20260504180421 | 27 | 325 | 3.2 | 3.2 | 0.00 | 0.00 | 0.00 | 60 | 1019.9 |
| 20260504175918 | 26 | 263 | 1.6 | 1.6 | 0.00 | 0.00 | 0.00 | 62 | 1020.0 |
| 20260504175415 | 25 | 347 | 1.6 | 1.6 | 0.00 | 0.00 | 0.00 | 64 | 1020.1 |
| 20260504174913 | 26 | 15 | 8.0 | 9.7 | 0.00 | 0.00 | 0.00 | 63 | 1020.3 |
| 20260504174410 | 26 | 11 | 1.6 | 3.2 | 0.00 | 0.00 | 0.00 | 63 | 1020.3 |
| 20260504173907 | 26 | 73 | 4.8 | 4.8 | 0.00 | 0.00 | 0.00 | 64 | 1020.2 |
| 20260504173404 | 26 | 341 | 1.6 | 1.6 | 0.00 | 0.00 | 0.00 | 62 | 1020.4 |
| 20260504172901 | 26 | 332 | 4.8 | 8.0 | 0.00 | 0.00 | 0.00 | 63 | 1020.3 |
| 20260504172357 | 26 | 87 | 3.2 | 3.2 | 0.00 | 0.00 | 0.00 | 64 | 1020.3 |
| 20260504171853 | 26 | 287 | 4.8 | 4.8 | 0.00 | 0.00 | 0.00 | 64 | 1020.3 |
| 20260504171351 | 26 | 303 | 1.6 | 3.2 | 0.00 | 0.00 | 0.00 | 63 | 1020.4 |
| 20260504170848 | 26 | 352 | 4.8 | 4.8 | 0.00 | 0.00 | 0.00 | 64 | 1020.6 |
| 20260504170344 | 26 | 47 | 1.6 | 3.2 | 0.00 | 0.00 | 0.00 | 64 | 1020.6 |
| 20260504160303 | 25 | 24 | 3.2 | 3.2 | 0.00 | 0.00 | 0.00 | 67 | 1021.7 |